Regional Weather Roundup
Issued by NWS

Home | Current Version | Previous Version | Graphics & Text | Print | Product List | Glossary On
Versions: 1 2 3 4 5 6 7 8 9 10 11 12 13 14 15 16 17 18 19 20 21 22 23 24 25 26 27 28 29 30 31 32 33 34 35 36 37 38 39 40 41 42 43 44 45 46 47 48 49 50
280
ASUS45 KTFX 231210
RWRMT
MONTANA REGIONAL WEATHER ROUNDUP
NATIONAL WEATHER SERVICE GREAT FALLS MT
600 AM MDT SUN JUL 23 2017

NOTE: "FAIR" INDICATES FEW OR NO CLOUDS BELOW 12000 FEET WITH NO
SIGNIFICANT WEATHER AND/OR OBSTRUCTIONS TO VISIBILITY.

MTZ001>007-043-231300-
WEST OF THE DIVIDE

CITY           SKY/WX    TMP DP  RH WIND       PRES   REMARKS
KALISPELL      CLEAR     49  46  90 CALM      30.06S
MISSOULA       CLEAR     58  47  66 CALM      30.11R
BUTTE          CLEAR     48  38  68 SE3       30.23S
MULLAN PASS    CLEAR     60  40  47 NW5       30.22F
ANACONDA         N/A     54  39  58 S5        30.19S
DEER LODGE       N/A     50  43  76 CALM      30.20S
EUREKA           N/A     55  46  71 MISG      30.03F
HAMILTON         N/A     55  45  67 CALM      30.12S
LIBBY            N/A     54  46  76 CALM      30.05S
PLAINS           N/A     52  44  74 CALM      30.07
RONAN            N/A     52  48  86 CALM      30.11S
$$

MTZ008-052>055-231300-
SOUTHWEST MONTANA

CITY           SKY/WX    TMP DP  RH WIND       PRES   REMARKS
BOZEMAN        CLEAR     51  41  68 S6        30.16S
DILLON         CLEAR     49  35  58 S6        30.19S
W YELLOWSTONE  CLOUDY    36  32  87 CALM      30.31S
ENNIS          CLEAR     46  32  57 E3        30.25S
$$

MTZ009-010-012-014-046-048-049-054-231300-
EAST SLOPES AND CENTRAL MONTANA

CITY           SKY/WX    TMP DP  RH WIND       PRES   REMARKS
CUT BANK       CLEAR     55  43  63 CALM      30.06F
GREAT FALLS    CLEAR     56  39  53 SW3       30.08R
MALMSTROM AFB  CLEAR     61  41  47 CALM      30.07S
HELENA         CLEAR     62  44  51 CALM      30.11S
CHOTEAU          N/A     63  41  45 S7        30.10S
CONRAD           N/A     52  47  83 W1        30.08S
$$

MTZ011-013-016-021-045-047-050-051-231300-
NORTH CENTRAL MONTANA

CITY           SKY/WX    TMP DP  RH WIND       PRES   REMARKS
HAVRE          CLEAR     55  42  61 CALM      30.00R
LEWISTOWN      CLEAR     55  39  54 S5        30.11S
N BAR RANCH    CLOUDY    55  36  47 W7        30.16S
CHINOOK          N/A     59  46  63 E3        29.99R
$$

MTZ017>020-022>027-061-062-231300-
NORTHEAST MONTANA

CITY           SKY/WX    TMP DP  RH WIND       PRES   REMARKS
GLASGOW        CLEAR     61  47  59 MISG      30.03S
JORDAN           N/A     53  42  66 W3        30.04S
SIDNEY         CLEAR     54  46  74 CALM      30.07R
WOLF POINT     CLEAR     54  44  69 E3        30.05S
MALTA          CLOUDY    59  48  67 NE8       30.01S
PLENTYWOOD       N/A     57  52  82 CALM      30.06F
POPLAR           N/A     54  46  76 NW3       30.06R
SCOBEY           N/A     49  42  76 CALM      30.04
$$

MTZ028>42-056>058-231300-
SOUTHCENTRAL AND SOUTHEAST MONTANA

CITY           SKY/WX    TMP DP  RH WIND       PRES   REMARKS
BAKER          CLEAR     54  41  61 E6        30.10S
BILLINGS       CLEAR     61  35  37 SW8       30.08S
LIVINGSTON     CLEAR     48  38  68 CALM      30.16S
MILES CITY     CLEAR     60  41  49 SE5       30.06S
BIG TIMBER     CLEAR     55  36  47 W9        30.17S
EKALAKA          N/A     63  41  44 SE8       30.09
FORSYTH          N/A     63  39  42 CALM      30.05S
LAUREL           N/A     53  36  52 SW1       30.07F
$$

REGIONAL REPORTS...DAKOTAS

CITY           SKY/WX    TMP DP  RH WIND       PRES   REMARKS
WILLISTON      CLEAR     54  51  90 CALM      30.07S
MINOT          CLEAR     55  52  89 SW6       30.06R
DICKINSON      CLEAR     55  51  86 SE3       30.08S
BEACH            N/A     55  50  82 S6        30.12S
CROSBY           N/A     55  55 100 S7        30.07S
TIOGA            N/A     50  50 100 CALM      30.09S
WATFORD CITY     N/A     50  46  87 CALM      30.07S
BISMARCK       CLEAR     59  55  87 W5        30.07R
GRAND FORKS    PTCLDY    63  61  93 N8        29.96R
FARGO          CLOUDY    63  60  90 NW10      29.96R
BUFFALO SD       N/A     58  49  72 CALM      30.05R
RAPID CITY     CLEAR     58  45  62 CALM      30.11S
$$

REGIONAL REPORTS...WYOMING/IDAHO/WASHINGTON

CITY           SKY/WX    TMP DP  RH WIND       PRES   REMARKS
GILLETTE       CLEAR     61  40  45 E3        30.13F
SHERIDAN       CLEAR     51  42  71 CALM      30.11S
BUFFALO WY     CLEAR     60  33  36 W5        30.17S
CODY           CLEAR     62  36  37 SW6       30.19R
YELLOWSTONE LA   N/A     38  36  92 CALM      30.40S
IDAHO FALLS    CLOUDY    47  45  93 N6        30.16S
BOISE          CLEAR     65  39  38 SE9       30.02R
SPOKANE        PTCLDY    65  49  56 S9        30.02S
$$

REGIONAL REPORTS...ALBERTA

CITY           SKY/WX    TMP DP  RH WIND       PRES   REMARKS
EDMONTON       CLEAR     55  54  94 CALM      29.92S
CALGARY        MOCLDY    57  48  72 CALM      29.98S
LETHBRIDGE     PTCLDY    57  48  72 SW12      29.99F
MEDICINE HAT   CLEAR     61  50  67 SW9       29.94S
WATERTON GATE    N/A     55  46  71 S5          N/A
MILK RIVER       N/A     50  46  87 CALM        N/A
$$

REGIONAL REPORTS...SASKATCHEWAN

CITY           SKY/WX    TMP DP  RH WIND       PRES   REMARKS
SWIFT CURRENT  CLOUDY    64  50  59 S12G18    29.98F
REGINA         PTCLDY    54  52  94 SE8       30.03S
SASKATOON      MOCLDY    59  55  88 SE7       29.96S
VAL MARIE        N/A     52  46  82 N2          N/A
ROCKGLEN         N/A     57  48  72 S7          N/A
ASSINIBOIA       N/A     55  54  94 N6          N/A
$$




USA.gov is the U.S. government's official web portal to all federal, state and local government web resources and services.